Printer-friendly version

IAU Minor Planet Center

Minor Planet Center

MPEC 2006-D05 : COMET P/2005 XA54 (LONEOS-HILL)

The following Minor Planet Electronic Circular may be linked-to from your own Web pages, but must not otherwise be redistributed electronically.


Read MPEC 2006-D04 Read MPEC 2006-D06


M.P.E.C. 2006-D05                                Issued 2006 Feb. 18, 14:36 UT

     The Minor Planet Electronic Circulars contain information on unusual
         minor planets and routine data on comets.  They are published
   on behalf of Commission 20 of the International Astronomical Union by the
          Minor Planet Center, Smithsonian Astrophysical Observatory,
                          Cambridge, MA 02138, U.S.A.

                  Supported in part by the Brinson Foundation
                  Supported in part by the TABASGO Foundation
             Prepared using the Tamkin Foundation Computer Network

                              MPC@CFA.HARVARD.EDU
          URL http://cfa-www.harvard.edu/iau/mpc.html  ISSN 1523-6714

                        COMET P/2005 XA54 (LONEOS-HILL)

Observations:
    PK05X54A  C2006 02 05.63721 10 12 40.13 +10 27 18.2                 ED005349
    PK05X54A  C2006 02 05.64165 10 12 40.20 +10 27 23.8                 ED005349
    PK05X54A  C2006 02 05.64612 10 12 40.24 +10 27 29.0          15.7 T ED005349
    PK05X54A  C2006 02 10.94446 10 13 51.51 +12 15 09.9                 ED005203
    PK05X54A  C2006 02 10.98841 10 13 51.88 +12 16 05.2                 ED005203
    PK05X54A  C2006 02 17.13579 10 14 55.95 +14 27 53.5          15.1 N ED005I77
    PK05X54A  C2006 02 17.14233 10 14 55.99 +14 28 01.9          15.1 N ED005I77
    PK05X54A  C2006 02 17.14698 10 14 56.03 +14 28 08.0          15.1 N ED005I77
    PK05X54A  C2006 02 17.15152 10 14 56.05 +14 28 13.7          15.2 N ED005I77
    PK05X54A  C2006 02 17.96620 10 15 03.96 +14 45 45.3          15.1 N ED005J76
    PK05X54A  C2006 02 17.96837 10 15 03.99 +14 45 48.2          15.1 N ED005J76
    PK05X54A  C2006 02 17.97129 10 15 03.98 +14 45 52.0          15.1 N ED005J76

Observer details:
203 GiaGa Observatory.  Observer G. Galli.  0.13-m f/6.4 refractor + CCD.
349 Ageo.  Observer K. Kadota.  0.25-m f/5.0 reflector + CCD.
I77 CEAMIG-REA Observatory, Belo Horizonte.  Observers C. Jacques, E. Pimentel.
    Measurer C. Jacques.  0.30-m f/3.0 Schmidt-Cassegrain + CCD.
J76 La Murta.  Observers S. Pastor, J. A. Reyes.  0.40-m f/6.3
    Schmidt-Cassegrain + CCD.

Orbital elements:
    P/2005 XA54 (LONEOS-Hill)
Epoch 2006 Mar. 6.0 TT = JDT 2453800.5
T 2006 Mar. 7.90462 TT                                  MPC
q   1.7776711            (2000.0)            P               Q
n   0.06488973     Peri.   15.35863     -0.93064444     -0.32413761
a   6.1331759      Node   144.24835     +0.29759669     -0.94046473
e   0.7101549      Incl.   16.89605     +0.21292521     -0.10227852
P  15.19
Residuals in seconds of arc
051204 699  0.3-  0.6+    060110 415  0.8+  0.4-    060201 H07  0.1+  0.2-
051204 699 (3.4+  1.0+)   060110 415  0.5+  0.3-    060201 H07  0.1-  0.1-
051204 699 (2.5+  0.1-)   060110 415  0.3+  0.3-    060201 J76  0.3+  0.1-
051204 699  0.3-  0.5-    060111 704  0.7+  0.2+    060201 J76  0.6+  0.4-
051206 703  0.6-  0.4+    060111 704  0.7+  0.4+    060201 J76  0.3+  0.4-
051206 704  0.8+  0.5-    060111 704  0.4+  0.2+    060202 H07  0.1-  0.0
051206 703  0.3-  0.1+    060111 704  0.2+  0.5+    060202 699  0.6-  0.5+
051206 704  1.0+  0.0     060111 704  0.9+  0.2-    060202 H07  0.8-  0.0
051206 703  0.4+  0.4-    060119 215  0.3+  0.4-    060202 699  0.5-  0.2+
051206 704  0.9+  0.1-    060119 215  0.2+  0.4-    060202 699  0.4-  0.2+
051206 704  0.8+  0.2+    060119 215  0.1+  0.4-    060202 H07  1.0-  0.0
051206 704  0.3+  0.3+    060122 232  0.2-  0.9-    060202 H07  1.4-  0.6+
051225 703  0.1-  1.9-    060122 232  1.0+  0.1-    060202 699  1.1-  0.6+
051225 703  0.5-  0.9-    060122 232  0.6+  0.1-    060202 H07  0.2-  0.2+
051225 703  0.4-  1.3-    060122 415  0.4+  0.8-    060202 H07  1.6-  1.4+
060102 704  0.7+  0.1+    060122 415  0.2+  0.5-    060203 213  0.2+  0.2-
060102 704  0.8+  0.3+    060122 130  0.1+  0.6-    060203 213  0.2+  0.3-
060102 704  0.7+  0.1+    060122 130  0.3+  0.6-    060203 213  0.3+  0.2-
060102 704  0.8+  0.1+    060122 130  0.4+  0.3-    060204 G96 (2.2-  0.7+)
060102 704  1.4+  0.2+    060123 704  0.5+  0.1+    060204 G96 (2.4-  0.7+)
060106 703  0.4-  0.1-    060123 704  0.3+  0.1+    060204 G96  1.4-  0.6+
060106 703  0.8-  0.2+    060123 704  0.2+  0.2+    060204 G96  1.5-  0.6+
060106 703  0.6-  0.1-    060123 704  0.1+  0.1-    060204 232  0.3-  0.2-
060106 703  0.4-  0.0     060123 704  0.0   0.3+    060204 232  0.1-  0.2+
060106 703  0.7-  0.3+    060123 349  0.6+  0.2-    060204 232  0.0   0.1+
060106 703  0.6-  0.2+    060123 349  0.5+  0.2-    060205 170  0.1+  0.2-
060106 703  0.5-  0.1+    060123 349  0.5+  0.2-    060205 170  0.2+  0.3-
060106 703  0.3-  0.1+    060124 699  0.2-  0.6+    060205 H07  0.2-  0.1+
060106 703  0.7-  0.3+    060124 699  0.1+  0.6+    060205 H07  0.1-  0.1+
060106 703  0.0   0.6+    060124 699  0.7-  1.0+    060205 H07  0.1+  0.2+
060106 703  0.2-  0.4+    060124 699  1.0-  0.1-    060205 349  0.2+  0.1-
060106 703  1.1-  0.3+    060124 D88  0.2+  0.2-    060205 349  0.5+  0.3+
060106 703  0.5-  0.0     060124 D88  0.1-  0.4-    060205 349  0.3+  0.2+
060106 703  0.5-  0.3+    060124 D88  0.1+  0.5-    060206 J76  0.7+  0.2+
060106 703  0.3-  0.5+    060125 H45  0.2+  0.6-    060206 J76  0.3+  0.9-
060106 703  1.2-  0.7+    060125 H45  0.5+  0.1-    060206 J76  0.6+  1.1-
060106 703  0.9-  0.2+    060125 H45  0.3+  0.2-    060206 203  0.1+  0.2+
060106 703  0.6-  0.3+    060125 H45  0.5+  0.3-    060207 203  0.1+  0.0
060106 703  1.1-  0.5+    060125 H45  0.2+  0.5-    060207 691  0.6-  0.4+
060106 703  1.1-  0.4+    060125 213  0.7+  0.3+    060207 691  0.4-  0.4+
060107 673  1.2+  0.5+    060125 213  0.5+  0.4+    060207 691  0.5-  0.4+
060107 673  1.4+  0.1+    060125 213  0.5+  0.6+    060207 703 (2.2-  0.6+)
060107 673  1.1+  0.0     060127 704  0.3+  0.0     060207 703  1.7-  0.5+
060107 699  0.3-  0.6+    060127 704  0.4+  0.2+    060207 703 (2.4-  0.7+)
060107 699  0.1-  0.5+    060127 704  0.4+  0.1+    060207 703 (2.5-  0.6+)
060107 699  0.2+  0.5+    060127 704  0.4+  0.2+    060207 213  0.9+  0.0
060107 699  0.5+  0.7+    060127 704  0.3+  0.2+    060207 213  0.7+  0.4-
060107 D88  0.9+  0.5-    060127 349  0.4+  0.1-    060207 213  0.7+  0.6+
060107 D88  0.8+  0.1+    060127 349  0.5+  0.3-    060208 I77  0.1-  0.4-
060107 D88  0.8+  0.2-    060127 349  0.4+  0.1-    060208 I77  0.2-  0.3-
060107 349  0.9+  0.2-    060131 H07  0.1-  0.0     060208 I77  0.2-  0.2-
060107 349  0.8+  0.3-    060131 H07  0.4-  0.0     060208 415  0.3+  0.4-
060107 349  0.9+  0.3-    060131 H07  0.2-  0.0     060208 415  0.2+  0.3-
060107 D83  0.8+  0.1-    060131 104  0.6+  0.1-    060210 203  0.0   0.2-
060107 D83  0.5+  0.1-    060131 104  0.6+  0.3-    060210 203  0.1-  0.3-
060107 D83  0.0   0.4+    060131 104  0.6+  0.2-    060217 I77  0.4-  0.1+
060107 D83  0.7+  0.3+    060131 104  0.9+  0.3-    060217 I77  0.3-  0.0
060108 349  0.4+  0.3-    060131 213  0.9+  0.6+    060217 I77  0.0   0.0
060108 349  0.4+  0.3-    060131 213  0.5+  0.3+    060217 I77  0.1-  0.2-
060108 349  0.6+  0.0     060131 213  1.1+  0.5+    060217 J76  0.3+  0.3+
060109 703  1.9-  0.3+    060201 H07  0.1-  0.1-    060217 J76  0.5+  0.4+
060109 703  0.4-  0.3+    060201 H07  0.2-  0.0     060217 J76  0.2+  0.4+
060109 703  0.7-  0.4+    060201 H07  0.1-  0.1-
060109 703  0.6-  0.4+    060201 H07  0.1+  0.8-

Brian G. Marsden             (C) Copyright 2006 MPC           M.P.E.C. 2006-D05

Read MPEC 2006-D04 Read MPEC 2006-D06


Our Web policy. Index to the CBAT/MPC/ICQ pages.


Valid HTML 4.01!